This demonstration page uses our WeatherBlox Daily Observations layout. Learn more.

Left ArrowRight Arrow

36.19886, -115.1175

Hourly Observations for October 23, 2021

Temp ( °F °C ) Dew Point ( °F °C ) Humidity (%) Winds ( mph kmh ) Pressure ( in mb ) Visibility ( mi km ) Precip ( " mm )
12:53 am 00:53 Clear 72 22.2 37 2.8 28 28 SSW 15 24 29.73 1007 10 16 N/A
1:53 am 01:53 Clear 71 21.7 37 2.8 29 29 S 12 19 29.71 1006 10 16 N/A
2:53 am 02:53 Clear 70 21.1 38 3.3 31 31 SSE 13 20 29.70 1006 10 16 N/A
3:53 am 03:53 Clear 70 21.1 40 4.4 34 34 S 17 28 29.67 1005 10 16 N/A
4:53 am 04:53 Clear 69 20.6 42 5.6 38 38 S 14 22 29.67 1005 10 16 N/A
5:53 am 05:53 Clear 68 20 43 6.1 40 40 S 14 22 29.69 1005 10 16 N/A
6:53 am 06:53 Clear 67 19.4 43 6.1 42 42 SSW 13 20 29.70 1006 10 16 N/A
7:53 am 07:53 Sunny 67 19.4 42 5.6 41 41 WSW 8 13 29.72 1007 10 16 N/A
8:53 am 08:53 Sunny 68 20 43 6.1 40 40 W 7 11 29.74 1007 10 16 N/A
9:53 am 09:53 Sunny 72 22.2 43 6.1 35 35 NNW 6 9 29.75 1008 10 16 N/A
10:53 am 10:53 Sunny 72 22.2 41 5 33 33 N N/A 29.75 1008 10 16 N/A
11:53 am 11:53 Sunny 75 23.9 41 5 29 29 N N/A 29.75 1008 10 16 N/A
12:53 pm 12:53 Sunny 75 23.9 40 4.4 28 28 SSE 6 9 29.72 1007 10 16 N/A
1:53 pm 13:53 Sunny 76 24.4 40 4.4 27 27 SSE 3 6 29.70 1006 10 16 N/A
2:53 pm 14:53 Sunny 77 25 40 4.4 26 26 SSW 7 11 29.70 1006 10 16 N/A
3:53 pm 15:53 Sunny 80 26.7 40 4.4 24 24 VRB 3 6 29.68 1005 10 16 N/A
4:53 pm 16:53 Sunny 78 25.6 39 3.9 25 25 N N/A 29.70 1006 10 16 N/A
5:53 pm 17:53 Sunny 76 24.4 39 3.9 26 26 SE 3 6 29.69 1006 10 16 N/A
6:53 pm 18:53 Clear 74 23.3 40 4.4 29 29 S 8 13 29.70 1006 10 16 N/A
7:53 pm 19:53 Clear 73 22.8 40 4.4 30 30 SSW 6 9 29.72 1007 10 16 N/A
8:53 pm 20:53 Clear 71 21.7 40 4.4 32 32 SSE 3 6 29.72 1006 10 16 N/A
9:53 pm 21:53 Clear 69 20.6 40 4.4 35 35 N 3 6 29.74 1007 10 16 N/A
10:53 pm 22:53 Clear 66 18.9 41 5 40 40 N 3 6 29.75 1008 10 16 N/A
11:53 pm 23:53 Clear 65 18.3 40 4.4 40 40 NNW 3 6 29.75 1008 10 16 N/A

Powered by AerisWeather